Year,Month,Day,Hour,Minute,Value (Times are PST for windspeed in km/hr)
2006,01,28,00,00,31.70
2006,01,28,00,01,29.80
2006,01,28,00,02,28.60
2006,01,28,00,03,30.50
2006,01,28,00,04,34.00
2006,01,28,00,05,30.30
2006,01,28,00,06,40.10
2006,01,28,00,07,31.50
2006,01,28,00,08,27.80
2006,01,28,00,09,34.50
2006,01,28,00,10,37.10
2006,01,28,00,11,28.30
2006,01,28,00,12,38.50
2006,01,28,00,13,34.60
2006,01,28,00,14,34.30
2006,01,28,00,15,44.70
2006,01,28,00,16,31.30
2006,01,28,00,17,25.50
2006,01,28,00,18,33.80
2006,01,28,00,19,33.20
2006,01,28,00,20,29.00
2006,01,28,00,21,28.50
2006,01,28,00,22,28.80
2006,01,28,00,23,30.60
2006,01,28,00,24,33.10
2006,01,28,00,25,35.80
2006,01,28,00,26,32.30
2006,01,28,00,27,25.40
2006,01,28,00,28,33.90
2006,01,28,00,29,49.20
2006,01,28,00,30,38.50
2006,01,28,00,31,53.10
2006,01,28,00,32,34.00
2006,01,28,00,33,34.00
2006,01,28,00,34,26.90
2006,01,28,00,35,40.60
2006,01,28,00,36,27.90
2006,01,28,00,37,17.80
2006,01,28,00,38,36.90
2006,01,28,00,39,27.40
2006,01,28,00,40,26.10
2006,01,28,00,41,24.10
2006,01,28,00,42,29.60
2006,01,28,00,43,27.60
2006,01,28,00,44,29.70
2006,01,28,00,45,32.40
2006,01,28,00,46,31.00
2006,01,28,00,47,30.20
2006,01,28,00,48,29.40
2006,01,28,00,49,29.90
2006,01,28,00,50,30.90
2006,01,28,00,51,28.00
2006,01,28,00,52,32.10
2006,01,28,00,53,49.20
2006,01,28,00,54,26.20
2006,01,28,00,55,25.40
2006,01,28,00,56,22.40
2006,01,28,00,57,26.60
2006,01,28,00,58,33.20
2006,01,28,00,59,31.80
2006,01,28,01,00,27.00
2006,01,28,01,01,20.40
2006,01,28,01,02,32.20
2006,01,28,01,03,23.00
2006,01,28,01,04,21.00
2006,01,28,01,05,28.00
2006,01,28,01,06,24.20
2006,01,28,01,07,21.80
2006,01,28,01,08,22.80
2006,01,28,01,09,24.90
2006,01,28,01,10,23.30
2006,01,28,01,11,28.00
2006,01,28,01,12,23.20
2006,01,28,01,13,22.70
2006,01,28,01,14,25.90
2006,01,28,01,15,36.80
2006,01,28,01,16,26.60
2006,01,28,01,17,22.80
2006,01,28,01,18,27.00
2006,01,28,01,19,24.70
2006,01,28,01,20,26.20
2006,01,28,01,21,26.30
2006,01,28,01,22,19.80
2006,01,28,01,23,20.70
2006,01,28,01,24,25.50
2006,01,28,01,25,30.60
2006,01,28,01,26,30.30
2006,01,28,01,27,25.90
2006,01,28,01,28,30.60
2006,01,28,01,29,25.20
2006,01,28,01,30,36.40
2006,01,28,01,31,27.70
2006,01,28,01,32,27.50
2006,01,28,01,33,30.20
2006,01,28,01,34,32.30
2006,01,28,01,35,31.50
2006,01,28,01,36,28.50
2006,01,28,01,37,29.80
2006,01,28,01,38,36.30
2006,01,28,01,39,31.00
2006,01,28,01,40,34.90
2006,01,28,01,41,28.50
2006,01,28,01,42,35.60
2006,01,28,01,43,33.50
2006,01,28,01,44,31.50
2006,01,28,01,45,33.10
2006,01,28,01,46,38.10
2006,01,28,01,47,34.80
2006,01,28,01,48,32.70
2006,01,28,01,49,31.90
2006,01,28,01,50,35.80
2006,01,28,01,51,27.80
2006,01,28,01,52,30.80
2006,01,28,01,53,38.00
2006,01,28,01,54,33.80
2006,01,28,01,55,38.70
2006,01,28,01,56,36.80
2006,01,28,01,57,39.80
2006,01,28,01,58,29.40
2006,01,28,01,59,38.90
2006,01,28,02,00,36.00
2006,01,28,02,01,38.90
2006,01,28,02,02,36.60
2006,01,28,02,03,32.80
2006,01,28,02,04,24.50
2006,01,28,02,05,30.70
2006,01,28,02,06,35.30
2006,01,28,02,07,27.90
2006,01,28,02,08,34.10
2006,01,28,02,09,37.50
2006,01,28,02,10,38.20
2006,01,28,02,11,40.20
2006,01,28,02,12,37.50
2006,01,28,02,13,27.00
2006,01,28,02,14,25.70
2006,01,28,02,15,28.60
2006,01,28,02,16,29.80
2006,01,28,02,17,30.70
2006,01,28,02,18,30.20
2006,01,28,02,19,31.00
2006,01,28,02,20,31.30
2006,01,28,02,21,34.40
2006,01,28,02,22,36.70
2006,01,28,02,23,32.30
2006,01,28,02,24,35.30
2006,01,28,02,25,26.40
2006,01,28,02,26,28.40
2006,01,28,02,27,30.40
2006,01,28,02,28,30.10
2006,01,28,02,29,36.90
2006,01,28,02,30,35.20
2006,01,28,02,31,32.60
2006,01,28,02,32,28.80
2006,01,28,02,33,29.40
2006,01,28,02,34,28.10
2006,01,28,02,35,31.30
2006,01,28,02,36,28.20
2006,01,28,02,37,34.70
2006,01,28,02,38,36.10
2006,01,28,02,39,27.60
2006,01,28,02,40,36.30
2006,01,28,02,41,35.20
2006,01,28,02,42,37.90
2006,01,28,02,43,29.30
2006,01,28,02,44,33.10
2006,01,28,02,45,32.70
2006,01,28,02,46,35.50
2006,01,28,02,47,36.20
2006,01,28,02,48,33.50
2006,01,28,02,49,38.60
2006,01,28,02,50,36.90
2006,01,28,02,51,33.60
2006,01,28,02,52,39.50
2006,01,28,02,53,37.90
2006,01,28,02,54,37.30
2006,01,28,02,55,32.80
2006,01,28,02,56,35.10
2006,01,28,02,57,32.00
2006,01,28,02,58,31.20
2006,01,28,02,59,27.80
2006,01,28,03,00,27.00
2006,01,28,03,01,34.10
2006,01,28,03,02,36.00
2006,01,28,03,03,35.40
2006,01,28,03,04,33.80
2006,01,28,03,05,30.00
2006,01,28,03,06,31.80
2006,01,28,03,07,28.80
2006,01,28,03,08,33.00
2006,01,28,03,09,30.10
2006,01,28,03,10,32.80
2006,01,28,03,11,24.40
2006,01,28,03,12,22.50
2006,01,28,03,13,33.70
2006,01,28,03,14,37.50
2006,01,28,03,15,30.10
2006,01,28,03,16,35.10
2006,01,28,03,17,30.70
2006,01,28,03,18,30.80
2006,01,28,03,19,31.00
2006,01,28,03,20,40.00
2006,01,28,03,21,34.00
2006,01,28,03,22,40.80
2006,01,28,03,23,29.10
2006,01,28,03,24,43.10
2006,01,28,03,25,29.60
2006,01,28,03,26,27.50
2006,01,28,03,27,27.20
2006,01,28,03,28,28.60
2006,01,28,03,29,35.20
2006,01,28,03,30,30.70
2006,01,28,03,31,27.90
2006,01,28,03,32,34.90
2006,01,28,03,33,36.00
2006,01,28,03,34,32.70
2006,01,28,03,35,30.80
2006,01,28,03,36,34.30
2006,01,28,03,37,32.60
2006,01,28,03,38,34.20
2006,01,28,03,39,28.50
2006,01,28,03,40,30.90
2006,01,28,03,41,35.90
2006,01,28,03,42,34.80
2006,01,28,03,43,26.10
2006,01,28,03,44,40.80
2006,01,28,03,45,35.10
2006,01,28,03,46,28.00
2006,01,28,03,47,29.50
2006,01,28,03,48,34.80
2006,01,28,03,49,31.90
2006,01,28,03,50,26.90
2006,01,28,03,51,24.30
2006,01,28,03,52,26.30
2006,01,28,03,53,29.50
2006,01,28,03,54,22.10
2006,01,28,03,55,24.80
2006,01,28,03,56,32.20
2006,01,28,03,57,20.90
2006,01,28,03,58,16.60
2006,01,28,03,59,26.50
2006,01,28,04,00,25.70
2006,01,28,04,01,39.70
2006,01,28,04,02,27.30
2006,01,28,04,03,23.40
2006,01,28,04,04,29.90
2006,01,28,04,05,37.20
2006,01,28,04,06,26.20
2006,01,28,04,07,31.60
2006,01,28,04,08,33.10
2006,01,28,04,09,31.10
2006,01,28,04,10,28.50
2006,01,28,04,11,27.70
2006,01,28,04,12,31.60
2006,01,28,04,13,37.60
2006,01,28,04,14,44.70
2006,01,28,04,15,31.50
2006,01,28,04,16,36.00
2006,01,28,04,17,36.80
2006,01,28,04,18,32.20
2006,01,28,04,19,28.30
2006,01,28,04,20,21.50
2006,01,28,04,21,23.60
2006,01,28,04,22,23.70
2006,01,28,04,23,30.50
2006,01,28,04,24,35.60
2006,01,28,04,25,36.50
2006,01,28,04,26,25.60
2006,01,28,04,27,23.60
2006,01,28,04,28,19.80
2006,01,28,04,29,23.40
2006,01,28,04,30,23.10
2006,01,28,04,31,14.70
2006,01,28,04,32,21.30
2006,01,28,04,33,15.70
2006,01,28,04,34,24.80
2006,01,28,04,35,19.20
2006,01,28,04,36,13.70
2006,01,28,04,37,20.00
2006,01,28,04,38,19.10
2006,01,28,04,39,18.40
2006,01,28,04,40,23.10
2006,01,28,04,41,23.10
2006,01,28,04,42,19.90
2006,01,28,04,43,14.80
2006,01,28,04,44,13.10
2006,01,28,04,45,18.70
2006,01,28,04,46,15.10
2006,01,28,04,47,14.60
2006,01,28,04,48,10.60
2006,01,28,04,49,10.60
2006,01,28,04,50,15.20
2006,01,28,04,51,17.80
2006,01,28,04,52,13.20
2006,01,28,04,53,15.40
2006,01,28,04,54,17.70
2006,01,28,04,55,15.40
2006,01,28,04,56,13.90
2006,01,28,04,57,16.90
2006,01,28,04,58,15.10
2006,01,28,04,59,19.90
2006,01,28,05,00,14.40
2006,01,28,05,01,21.60
2006,01,28,05,02,22.90
2006,01,28,05,03,16.40
2006,01,28,05,04,13.20
2006,01,28,05,05,20.50
2006,01,28,05,06,14.60
2006,01,28,05,07,13.60
2006,01,28,05,08,20.50
2006,01,28,05,09,28.70
2006,01,28,05,10,18.30
2006,01,28,05,11,26.20
2006,01,28,05,12,23.90
2006,01,28,05,13,20.70
2006,01,28,05,14,17.70
2006,01,28,05,15,26.60
2006,01,28,05,16,21.20
2006,01,28,05,17,39.30
2006,01,28,05,18,25.40
2006,01,28,05,19,24.00
2006,01,28,05,20,33.00
2006,01,28,05,21,27.40
2006,01,28,05,22,31.80
2006,01,28,05,23,21.80
2006,01,28,05,24,20.60
2006,01,28,05,25,23.50
2006,01,28,05,26,24.90
2006,01,28,05,27,25.80
2006,01,28,05,28,20.90
2006,01,28,05,29,27.70
2006,01,28,05,30,29.60
2006,01,28,05,31,22.20
2006,01,28,05,32,17.30
2006,01,28,05,33,14.60
2006,01,28,05,34,29.20
2006,01,28,05,35,20.50
2006,01,28,05,36,24.30
2006,01,28,05,37,16.30
2006,01,28,05,38,15.10
2006,01,28,05,39,18.00
2006,01,28,05,40,16.70
2006,01,28,05,41,17.70
2006,01,28,05,42,20.70
2006,01,28,05,43,16.70
2006,01,28,05,44,16.80
2006,01,28,05,45,17.40
2006,01,28,05,46,17.20
2006,01,28,05,47,18.70
2006,01,28,05,48,18.60
2006,01,28,05,49,15.20
2006,01,28,05,50,18.20
2006,01,28,05,51,15.30
2006,01,28,05,52,14.80
2006,01,28,05,53,9.70
2006,01,28,05,54,14.00
2006,01,28,05,55,17.80
2006,01,28,05,56,17.70
2006,01,28,05,57,20.50
2006,01,28,05,58,20.40
2006,01,28,05,59,14.00
2006,01,28,06,00,20.90
2006,01,28,06,01,24.10
2006,01,28,06,02,18.10
2006,01,28,06,03,21.20
2006,01,28,06,04,17.40
2006,01,28,06,05,24.90
2006,01,28,06,06,21.60
2006,01,28,06,07,25.40
2006,01,28,06,08,26.10
2006,01,28,06,09,20.80
2006,01,28,06,10,19.60
2006,01,28,06,11,20.30
2006,01,28,06,12,27.30
2006,01,28,06,13,17.50
2006,01,28,06,14,9.20
2006,01,28,06,15,13.50
2006,01,28,06,16,19.10
2006,01,28,06,17,19.10
2006,01,28,06,18,15.00
2006,01,28,06,19,15.00
2006,01,28,06,20,11.20
2006,01,28,06,21,18.70
2006,01,28,06,22,10.90
2006,01,28,06,23,12.00
2006,01,28,06,24,24.10
2006,01,28,06,25,17.70
2006,01,28,06,26,15.80
2006,01,28,06,27,32.90
2006,01,28,06,28,33.20
2006,01,28,06,29,20.80
2006,01,28,06,30,10.50
2006,01,28,06,31,12.80
2006,01,28,06,32,18.10
2006,01,28,06,33,15.50
2006,01,28,06,34,16.60
2006,01,28,06,35,15.90
2006,01,28,06,36,14.60
2006,01,28,06,37,18.80
2006,01,28,06,38,19.90
2006,01,28,06,39,13.00
2006,01,28,06,40,21.80
2006,01,28,06,41,17.90
2006,01,28,06,42,18.10
2006,01,28,06,43,24.80
2006,01,28,06,44,25.70
2006,01,28,06,45,15.80
2006,01,28,06,46,20.00
2006,01,28,06,47,19.50
2006,01,28,06,48,23.40
2006,01,28,06,49,24.00
2006,01,28,06,50,19.80
2006,01,28,06,51,23.30
2006,01,28,06,52,22.00
2006,01,28,06,53,23.80
2006,01,28,06,54,15.90
2006,01,28,06,55,11.90
2006,01,28,06,56,17.40
2006,01,28,06,57,22.10
2006,01,28,06,58,18.70
2006,01,28,06,59,16.80
2006,01,28,07,00,18.60
2006,01,28,07,01,18.20
2006,01,28,07,02,22.00
2006,01,28,07,03,17.80
2006,01,28,07,04,18.20
2006,01,28,07,05,22.40
2006,01,28,07,06,18.80
2006,01,28,07,07,23.00
2006,01,28,07,08,20.40
2006,01,28,07,09,14.10
2006,01,28,07,10,24.40
2006,01,28,07,11,18.00
2006,01,28,07,12,14.90
2006,01,28,07,13,17.40
2006,01,28,07,14,15.80
2006,01,28,07,15,22.00
2006,01,28,07,16,19.60
2006,01,28,07,17,16.20
2006,01,28,07,18,15.90
2006,01,28,07,19,18.40
2006,01,28,07,20,19.80
2006,01,28,07,21,17.90
2006,01,28,07,22,18.20
2006,01,28,07,23,15.30
2006,01,28,07,24,20.00
2006,01,28,07,25,17.00
2006,01,28,07,26,18.40
2006,01,28,07,27,23.70
2006,01,28,07,28,17.20
2006,01,28,07,29,24.00
2006,01,28,07,30,23.00
2006,01,28,07,31,23.10
2006,01,28,07,32,18.20
2006,01,28,07,33,16.00
2006,01,28,07,34,21.60
2006,01,28,07,35,20.00
2006,01,28,07,36,15.10
2006,01,28,07,37,19.30
2006,01,28,07,38,23.40
2006,01,28,07,39,24.20
2006,01,28,07,40,16.00
2006,01,28,07,41,18.90
2006,01,28,07,42,21.30
2006,01,28,07,43,20.40
2006,01,28,07,44,22.80
2006,01,28,07,45,27.10
2006,01,28,07,46,19.60
2006,01,28,07,47,22.00
2006,01,28,07,48,27.50
2006,01,28,07,49,28.70
2006,01,28,07,50,26.70
2006,01,28,07,51,26.40
2006,01,28,07,52,27.00
2006,01,28,07,53,17.80
2006,01,28,07,54,20.00
2006,01,28,07,55,28.50
2006,01,28,07,56,26.30
2006,01,28,07,57,24.90
2006,01,28,07,58,25.60
2006,01,28,07,59,24.60
2006,01,28,08,00,29.90
2006,01,28,08,01,26.60
2006,01,28,08,02,30.00
2006,01,28,08,03,28.20
2006,01,28,08,04,26.10
2006,01,28,08,05,25.80
2006,01,28,08,06,24.10
2006,01,28,08,07,22.90
2006,01,28,08,08,15.00
2006,01,28,08,09,22.00
2006,01,28,08,10,21.70
2006,01,28,08,11,27.40
2006,01,28,08,12,23.00
2006,01,28,08,13,19.90
2006,01,28,08,14,20.70
2006,01,28,08,15,23.80
2006,01,28,08,16,20.80
2006,01,28,08,17,26.00
2006,01,28,08,18,24.00
2006,01,28,08,19,20.60
2006,01,28,08,20,23.30
2006,01,28,08,21,23.70
2006,01,28,08,22,23.10
2006,01,28,08,23,21.40
2006,01,28,08,24,22.20
2006,01,28,08,25,25.10
2006,01,28,08,26,24.30
2006,01,28,08,27,18.70
2006,01,28,08,28,18.40
2006,01,28,08,29,21.20
2006,01,28,08,30,22.20
2006,01,28,08,31,28.50
2006,01,28,08,32,21.50
2006,01,28,08,33,23.60
2006,01,28,08,34,14.70
2006,01,28,08,35,13.00
2006,01,28,08,36,12.50
2006,01,28,08,37,7.60
2006,01,28,08,38,8.80
2006,01,28,08,39,13.90
2006,01,28,08,40,12.80
2006,01,28,08,41,10.70
2006,01,28,08,42,9.00
2006,01,28,08,43,13.60
2006,01,28,08,44,18.40
2006,01,28,08,45,9.70
2006,01,28,08,46,15.50
2006,01,28,08,47,15.80
2006,01,28,08,48,3.90
2006,01,28,08,49,10.50
2006,01,28,08,50,8.00
2006,01,28,08,51,11.00
2006,01,28,08,52,11.40
2006,01,28,08,53,6.10
2006,01,28,08,54,8.90
2006,01,28,08,55,7.90
2006,01,28,08,56,7.90
2006,01,28,08,57,7.30
2006,01,28,08,58,2.30
2006,01,28,08,59,1.60
2006,01,28,09,00,3.80
2006,01,28,09,01,2.50
2006,01,28,09,02,4.10
2006,01,28,09,03,3.60
2006,01,28,09,04,1.70
2006,01,28,09,05,1.40
2006,01,28,09,06,0.30
2006,01,28,09,07,2.50
2006,01,28,09,08,2.60
2006,01,28,09,09,0.00
2006,01,28,09,10,2.30
2006,01,28,09,11,7.10
2006,01,28,09,12,3.10
2006,01,28,09,13,8.70
2006,01,28,09,14,6.30
2006,01,28,09,15,5.10
2006,01,28,09,16,4.20
2006,01,28,09,17,3.50
2006,01,28,09,18,5.30
2006,01,28,09,19,5.10
2006,01,28,09,20,7.90
2006,01,28,09,21,8.50
2006,01,28,09,22,6.40
2006,01,28,09,23,7.50
2006,01,28,09,24,8.90
2006,01,28,09,25,5.90
2006,01,28,09,26,7.00
2006,01,28,09,27,7.80
2006,01,28,09,28,8.30
2006,01,28,09,29,9.40
2006,01,28,09,30,9.00
2006,01,28,09,31,9.60
2006,01,28,09,32,12.80
2006,01,28,09,33,11.30
2006,01,28,09,34,10.60
2006,01,28,09,35,15.30
2006,01,28,09,36,13.70
2006,01,28,09,37,6.40
2006,01,28,09,38,13.70
2006,01,28,09,39,9.70
2006,01,28,09,40,15.50
2006,01,28,09,41,15.70
2006,01,28,09,42,10.10
2006,01,28,09,43,10.90
2006,01,28,09,44,15.60
2006,01,28,09,45,20.40
2006,01,28,09,46,13.20
2006,01,28,09,47,14.20
2006,01,28,09,48,14.70
2006,01,28,09,49,11.80
2006,01,28,09,50,15.20
2006,01,28,09,51,19.20
2006,01,28,09,52,15.50
2006,01,28,09,53,16.00
2006,01,28,09,54,14.20
2006,01,28,09,55,12.80
2006,01,28,09,56,7.20
2006,01,28,09,57,13.50
2006,01,28,09,58,14.90
2006,01,28,09,59,9.40
2006,01,28,10,00,14.70
2006,01,28,10,01,12.20
2006,01,28,10,02,20.20
2006,01,28,10,03,16.20
2006,01,28,10,04,15.80
2006,01,28,10,05,17.40
2006,01,28,10,06,19.50
2006,01,28,10,07,23.20
2006,01,28,10,08,24.40
2006,01,28,10,09,17.70
2006,01,28,10,10,17.70
2006,01,28,10,11,17.20
2006,01,28,10,12,21.00
2006,01,28,10,13,17.10
2006,01,28,10,14,19.10
2006,01,28,10,15,12.90
2006,01,28,10,16,7.40
2006,01,28,10,17,14.20
2006,01,28,10,18,14.00
2006,01,28,10,19,16.20
2006,01,28,10,20,9.10
2006,01,28,10,21,12.00
2006,01,28,10,22,12.60
2006,01,28,10,23,5.30
2006,01,28,10,24,7.60
2006,01,28,10,25,7.20
2006,01,28,10,26,8.00
2006,01,28,10,27,4.00
2006,01,28,10,28,1.90
2006,01,28,10,29,10.30
2006,01,28,10,30,16.00
2006,01,28,10,31,11.70
2006,01,28,10,32,6.60
2006,01,28,10,33,9.30
2006,01,28,10,34,8.60
2006,01,28,10,35,11.50
2006,01,28,10,36,13.00
2006,01,28,10,37,13.70
2006,01,28,10,38,13.80
2006,01,28,10,39,11.10
2006,01,28,10,40,6.50
2006,01,28,10,41,8.50
2006,01,28,10,42,5.80
2006,01,28,10,43,8.90
2006,01,28,10,44,8.00
2006,01,28,10,45,7.20
2006,01,28,10,46,4.30
2006,01,28,10,47,11.70
2006,01,28,10,48,8.60
2006,01,28,10,49,6.40
2006,01,28,10,50,7.90
2006,01,28,10,51,8.80
2006,01,28,10,52,12.20
2006,01,28,10,53,6.60
2006,01,28,10,54,9.80
2006,01,28,10,55,11.90
2006,01,28,10,56,12.20
2006,01,28,10,57,13.50
2006,01,28,10,58,7.90
2006,01,28,10,59,12.20
2006,01,28,11,00,16.10
2006,01,28,11,01,9.10
2006,01,28,11,02,13.00
2006,01,28,11,03,13.70
2006,01,28,11,04,14.40
2006,01,28,11,05,13.10
2006,01,28,11,06,21.90
2006,01,28,11,07,22.40
2006,01,28,11,08,20.90
2006,01,28,11,09,16.90
2006,01,28,11,10,18.90
2006,01,28,11,11,13.80
2006,01,28,11,12,14.40
2006,01,28,11,13,19.10
2006,01,28,11,14,12.50
2006,01,28,11,15,8.40
2006,01,28,11,16,11.60
2006,01,28,11,17,12.20
2006,01,28,11,18,11.90
2006,01,28,11,19,13.10
2006,01,28,11,20,17.10
2006,01,28,11,21,17.60
2006,01,28,11,22,14.20
2006,01,28,11,23,7.30
2006,01,28,11,24,14.60
2006,01,28,11,25,13.60
2006,01,28,11,26,14.70
2006,01,28,11,27,9.00
2006,01,28,11,28,12.70
2006,01,28,11,29,14.10
2006,01,28,11,30,13.20
2006,01,28,11,31,11.70
2006,01,28,11,32,15.90
2006,01,28,11,33,18.30
2006,01,28,11,34,16.40
2006,01,28,11,35,13.80
2006,01,28,11,36,8.80
2006,01,28,11,37,12.20
2006,01,28,11,38,11.00
2006,01,28,11,39,16.20
2006,01,28,11,40,16.70
2006,01,28,11,41,14.30
2006,01,28,11,42,15.90
2006,01,28,11,43,12.20
2006,01,28,11,44,14.80
2006,01,28,11,45,10.80
2006,01,28,11,46,9.00
2006,01,28,11,47,13.60
2006,01,28,11,48,9.30
2006,01,28,11,49,12.60
2006,01,28,11,50,14.50
2006,01,28,11,51,11.70
2006,01,28,11,52,11.30
2006,01,28,11,53,12.20
2006,01,28,11,54,10.70
2006,01,28,11,55,15.30
2006,01,28,11,56,15.40
2006,01,28,11,57,11.80
2006,01,28,11,58,12.00
2006,01,28,11,59,11.10
2006,01,28,12,00,10.90
2006,01,28,12,01,12.60
2006,01,28,12,02,13.10
2006,01,28,12,03,8.40
2006,01,28,12,04,10.40
2006,01,28,12,05,12.20
2006,01,28,12,06,10.30
2006,01,28,12,07,14.60
2006,01,28,12,08,13.60
2006,01,28,12,09,8.50
2006,01,28,12,10,11.00
2006,01,28,12,11,8.80
2006,01,28,12,12,14.50
2006,01,28,12,13,11.00
2006,01,28,12,14,16.30
2006,01,28,12,15,10.00
2006,01,28,12,16,8.10
2006,01,28,12,17,7.60
2006,01,28,12,18,9.20
2006,01,28,12,19,9.70
2006,01,28,12,20,11.70
2006,01,28,12,21,12.60
2006,01,28,12,22,12.20
2006,01,28,12,23,10.60
2006,01,28,12,24,13.20
2006,01,28,12,25,10.90
2006,01,28,12,26,19.60
2006,01,28,12,27,16.90
2006,01,28,12,28,14.80
2006,01,28,12,29,13.70
2006,01,28,12,30,10.20
2006,01,28,12,31,13.50
2006,01,28,12,32,11.80
2006,01,28,12,33,9.50
2006,01,28,12,34,13.50
2006,01,28,12,35,11.10
2006,01,28,12,36,7.20
2006,01,28,12,37,14.20
2006,01,28,12,38,18.70
2006,01,28,12,39,11.30
2006,01,28,12,40,7.60
2006,01,28,12,41,7.90
2006,01,28,12,42,12.20
2006,01,28,12,43,8.20
2006,01,28,12,44,10.00
2006,01,28,12,45,14.70
2006,01,28,12,46,12.70
2006,01,28,12,47,12.60
2006,01,28,12,48,15.20
2006,01,28,12,49,12.20
2006,01,28,12,50,16.10
2006,01,28,12,51,11.40
2006,01,28,12,52,14.10
2006,01,28,12,53,14.10
2006,01,28,12,54,10.60
2006,01,28,12,55,7.90
2006,01,28,12,56,8.00
2006,01,28,12,57,17.10
2006,01,28,12,58,12.20
2006,01,28,12,59,8.90
2006,01,28,13,00,7.80
2006,01,28,13,01,9.70
2006,01,28,13,02,15.70
2006,01,28,13,03,10.60
2006,01,28,13,04,14.00
2006,01,28,13,05,14.20
2006,01,28,13,06,8.90
2006,01,28,13,07,12.40
2006,01,28,13,08,12.50
2006,01,28,13,09,7.30
2006,01,28,13,10,7.50
2006,01,28,13,11,13.00
2006,01,28,13,12,10.40
2006,01,28,13,13,8.90
2006,01,28,13,14,7.90
2006,01,28,13,15,16.70
2006,01,28,13,16,14.70
2006,01,28,13,17,17.90
2006,01,28,13,18,13.00
2006,01,28,13,19,16.80
2006,01,28,13,20,14.30
2006,01,28,13,21,15.90
2006,01,28,13,22,14.60
2006,01,28,13,23,15.60
2006,01,28,13,24,13.50
2006,01,28,13,25,16.40
2006,01,28,13,26,12.20
2006,01,28,13,27,7.80
2006,01,28,13,28,15.10
2006,01,28,13,29,13.60
2006,01,28,13,30,6.60
2006,01,28,13,31,14.40
2006,01,28,13,32,6.40
2006,01,28,13,33,12.60
2006,01,28,13,34,15.90
2006,01,28,13,35,10.40
2006,01,28,13,36,15.00
2006,01,28,13,37,18.30
2006,01,28,13,38,15.80
2006,01,28,13,39,17.30
2006,01,28,13,40,13.90
2006,01,28,13,41,12.50
2006,01,28,13,42,12.30
2006,01,28,13,43,8.00
2006,01,28,13,44,9.30
2006,01,28,13,45,11.10
2006,01,28,13,46,10.70
2006,01,28,13,47,6.80
2006,01,28,13,48,6.20
2006,01,28,13,49,7.60
2006,01,28,13,50,6.60
2006,01,28,13,51,4.80
2006,01,28,13,52,8.60
2006,01,28,13,53,8.30
2006,01,28,13,54,10.40
2006,01,28,13,55,15.10
2006,01,28,13,56,16.50
2006,01,28,13,57,11.80
2006,01,28,13,58,18.30
2006,01,28,13,59,24.10
2006,01,28,14,00,21.40
2006,01,28,14,01,18.70
2006,01,28,14,02,25.50
2006,01,28,14,03,23.40
2006,01,28,14,04,24.90
2006,01,28,14,05,25.00
2006,01,28,14,06,25.60
2006,01,28,14,07,24.50
2006,01,28,14,08,21.60
2006,01,28,14,09,18.00
2006,01,28,14,10,16.70
2006,01,28,14,11,12.70
2006,01,28,14,12,20.80
2006,01,28,14,13,20.40
2006,01,28,14,14,13.50
2006,01,28,14,15,6.50
2006,01,28,14,16,6.50
2006,01,28,14,17,17.20
2006,01,28,14,18,14.40
2006,01,28,14,19,12.00
2006,01,28,14,20,14.20
2006,01,28,14,21,10.90
2006,01,28,14,22,11.80
2006,01,28,14,23,11.20
2006,01,28,14,24,6.40
2006,01,28,14,25,10.40
2006,01,28,14,26,12.40
2006,01,28,14,27,9.40
2006,01,28,14,28,14.40
2006,01,28,14,29,11.30
2006,01,28,14,30,15.10
2006,01,28,14,31,12.20
2006,01,28,14,32,20.00
2006,01,28,14,33,21.10
2006,01,28,14,34,17.80
2006,01,28,14,35,19.10
2006,01,28,14,36,18.30
2006,01,28,14,37,18.30
2006,01,28,14,38,20.10
2006,01,28,14,39,19.60
2006,01,28,14,40,17.00
2006,01,28,14,41,17.00
2006,01,28,14,42,17.20
2006,01,28,14,43,27.90
2006,01,28,14,44,22.90
2006,01,28,14,45,20.20
2006,01,28,14,46,11.40
2006,01,28,14,47,8.10
2006,01,28,14,48,8.30
2006,01,28,14,49,7.40
2006,01,28,14,50,7.00
2006,01,28,14,51,4.70
2006,01,28,14,52,6.10
2006,01,28,14,53,6.40
2006,01,28,14,54,3.30
2006,01,28,14,55,4.10
2006,01,28,14,56,4.00
2006,01,28,14,57,2.80
2006,01,28,14,58,3.00
2006,01,28,14,59,6.90
2006,01,28,15,00,3.10
2006,01,28,15,01,3.30
2006,01,28,15,02,2.50
2006,01,28,15,03,9.30
2006,01,28,15,04,2.90
2006,01,28,15,05,8.30
2006,01,28,15,06,8.50
2006,01,28,15,07,9.50
2006,01,28,15,08,8.10
2006,01,28,15,09,10.80
2006,01,28,15,10,8.60
2006,01,28,15,11,8.40
2006,01,28,15,12,8.80
2006,01,28,15,13,12.70
2006,01,28,15,14,14.90
2006,01,28,15,15,14.20
2006,01,28,15,16,9.10
2006,01,28,15,17,11.50
2006,01,28,15,18,8.20
2006,01,28,15,19,10.80
2006,01,28,15,20,11.80
2006,01,28,15,21,14.70
2006,01,28,15,22,12.90
2006,01,28,15,23,15.00
2006,01,28,15,24,9.30
2006,01,28,15,25,13.50
2006,01,28,15,26,13.50
2006,01,28,15,27,11.20
2006,01,28,15,28,13.90
2006,01,28,15,29,12.60
2006,01,28,15,30,14.10
2006,01,28,15,31,12.50
2006,01,28,15,32,11.10
2006,01,28,15,33,7.60
2006,01,28,15,34,8.90
2006,01,28,15,35,6.90
2006,01,28,15,36,10.60
2006,01,28,15,37,8.30
2006,01,28,15,38,13.40
2006,01,28,15,39,5.60
2006,01,28,15,40,4.90
2006,01,28,15,41,9.30
2006,01,28,15,42,5.00
2006,01,28,15,43,9.20
2006,01,28,15,44,9.00
2006,01,28,15,45,10.10
2006,01,28,15,46,11.80
2006,01,28,15,47,8.60
2006,01,28,15,48,10.30
2006,01,28,15,49,4.00
2006,01,28,15,50,2.70
2006,01,28,15,51,6.00
2006,01,28,15,52,6.40
2006,01,28,15,53,8.20
2006,01,28,15,54,6.50
2006,01,28,15,55,4.50
2006,01,28,15,56,4.00
2006,01,28,15,57,7.10
2006,01,28,15,58,8.90
2006,01,28,15,59,4.60
2006,01,28,16,00,2.90
2006,01,28,16,01,13.40
2006,01,28,16,02,10.80
2006,01,28,16,03,13.20
2006,01,28,16,04,11.40
2006,01,28,16,05,19.60
2006,01,28,16,06,14.50
2006,01,28,16,07,19.10
2006,01,28,16,08,15.80
2006,01,28,16,09,14.70
2006,01,28,16,10,13.50
2006,01,28,16,11,9.90
2006,01,28,16,12,7.20
2006,01,28,16,13,8.60
2006,01,28,16,14,11.00
2006,01,28,16,15,12.10
2006,01,28,16,16,10.90
2006,01,28,16,17,13.10
2006,01,28,16,18,14.20
2006,01,28,16,19,13.40
2006,01,28,16,20,13.70
2006,01,28,16,21,13.70
2006,01,28,16,22,11.00
2006,01,28,16,23,13.40
2006,01,28,16,24,8.10
2006,01,28,16,25,9.90
2006,01,28,16,26,11.50
2006,01,28,16,27,9.70
2006,01,28,16,28,9.20
2006,01,28,16,29,10.60
2006,01,28,16,30,11.20
2006,01,28,16,31,13.80
2006,01,28,16,32,13.60
2006,01,28,16,33,10.00
2006,01,28,16,34,14.80
2006,01,28,16,35,15.90
2006,01,28,16,36,14.90
2006,01,28,16,37,13.10
2006,01,28,16,38,14.20
2006,01,28,16,39,10.90
2006,01,28,16,40,15.10
2006,01,28,16,41,14.20
2006,01,28,16,42,17.40
2006,01,28,16,43,13.40
2006,01,28,16,44,9.40
2006,01,28,16,45,12.40
2006,01,28,16,46,14.80
2006,01,28,16,47,15.20
2006,01,28,16,48,16.00
2006,01,28,16,49,10.90
2006,01,28,16,50,11.40
2006,01,28,16,51,12.00
2006,01,28,16,52,18.50
2006,01,28,16,53,12.70
2006,01,28,16,54,11.60
2006,01,28,16,55,12.50
2006,01,28,16,56,12.90
2006,01,28,16,57,18.10
2006,01,28,16,58,20.10
2006,01,28,16,59,16.50
2006,01,28,17,00,19.20
2006,01,28,17,01,18.60
2006,01,28,17,02,15.60
2006,01,28,17,03,20.40
2006,01,28,17,04,27.00
2006,01,28,17,05,18.20
2006,01,28,17,06,15.20
2006,01,28,17,07,13.00
2006,01,28,17,08,17.50
2006,01,28,17,09,21.80
2006,01,28,17,10,17.90
2006,01,28,17,11,15.90
2006,01,28,17,12,14.20
2006,01,28,17,13,9.30
2006,01,28,17,14,9.60
2006,01,28,17,15,9.10
2006,01,28,17,16,12.50
2006,01,28,17,17,18.70
2006,01,28,17,18,14.00
2006,01,28,17,19,13.10
2006,01,28,17,20,13.20
2006,01,28,17,21,13.20
2006,01,28,17,22,6.30
2006,01,28,17,23,8.10
2006,01,28,17,24,9.20
2006,01,28,17,25,9.90
2006,01,28,17,26,11.40
2006,01,28,17,27,16.10